Preview of NWS' New Version of Forecast
This preview is not operational and should not be used for support decisions.

Regional Weather Roundup (RWR)

Issued by National Weather Service (NWS)

                            
000
ASUS43 KDMX 211006
RWRIA 

WEATHER ROUNDUP FOR IOWA
NATIONAL WEATHER SERVICE DES MOINES IA
400 AM CST THU FEB 21 2019

NOTE: "FAIR" INDICATES FEW OR NO CLOUDS BELOW 12,000 FEET WITH NO
SIGNIFICANT WEATHER AND/OR OBSTRUCTIONS TO VISIBILITY.

* - THESE STATIONS ARE NOT NWS STATIONS...THUS NOT UNDER NWS
QUALITY CONTROL.  THEY ALSO DO NOT REPORT WEATHER SUCH 
AS PRECIPITATION OR FOG.  

IAZ001>003-012>014-020>022-031>034-043>046-211100-
   NORTHWEST IOWA
  
CITY           SKY/WX    TMP DP  RH WIND       PRES   REMARKS
CARROLL *      CLOUDY    10   9  92 W7G13     30.02R WCI   0          
CHEROKEE *     CLOUDY     2   0  93 CALM      30.01R FOG              
DENISON *      PTCLDY     9   7  92 CALM      30.04R FOG              
LE MARS *      CLOUDY     0  -2  92 CALM      30.01R                  
ORANGE CITY *  CLOUDY     0  -2  92 W5        29.97S WCI -10          
SHELDON *      CLOUDY     1   1 100 SW5       29.96R WCI  -8          
SIOUX CITY     CLOUDY     0  -2  91 CALM      30.03R                  
SPENCER        CLOUDY     5   1  83 W16       29.97R WCI -14          
STORM LAKE *   CLOUDY     7   5  92 W13       29.98R WCI  -9          
$$
 
IAZ055>058-069>071-079>083-090>094-211100-
   SOUTHWEST IOWA
  
CITY           SKY/WX    TMP DP  RH WIND       PRES   REMARKS
ATLANTIC *     PTCLDY     1   1 100 CALM      30.06R FOG              
AUDUBON *      CLOUDY     7   3  85 CALM      30.04R FOG              
CLARINDA *     CLOUDY     3   0  85 CALM      30.11S                  
COUNCIL BLFS * PTCLDY    16  14  93 SW6       30.05R WCI   7          
CRESTON *      CLOUDY    10   9  92 SW7       30.07R WCI   0          
HARLAN  *      CLOUDY     7   7 100 CALM      30.05R                  
LAMONI         CLOUDY    16  11  80 S6        30.06R WCI   7          
RED OAK *        N/A      3   1  92 CALM      30.08R                  
SHENANDOAH *   CLOUDY     1   0  92 CALM      30.09R                  
$$
 
IAZ047>049-059>061-072>074-084-211100-
   CENTRAL IOWA
  
CITY           SKY/WX    TMP DP  RH WIND       PRES   REMARKS
AMES           PTCLDY     4   2  91 SW7       30.04R FOG     WCI  -8  
ANKENY *       CLOUDY    16  12  86 W8        30.06R WCI   5          
BOONE *        PTCLDY    10  10 100 W9        30.02R WCI  -2          
CHARITON *     CLOUDY    14  12  92 W8        30.06R WCI   3          
DES MOINES     CLOUDY    14  11  87 W7        30.06R WCI   4          
GRINNELL*      CLOUDY    17  14  88 W9        30.04R WCI   5          
KNOXVILLE *    CLOUDY    16  16 100 SW9       30.06R WCI   4          
MARSHALLTOWN   PTCLDY     8   7  95 W8        30.02R FOG     WCI  -4  
NEWTON *       CLOUDY    12  12 100 W8        30.04R WCI   1          
PELLA *        CLOUDY    17  13  86 SW6       30.08R WCI   8          
PERRY *        FAIR       4   2  91 SW10      30.05R FOG     WCI -11  
$$
 
IAZ004>006-015-016-023>025-035-036-211100-
   NORTH CENTRAL IOWA
  
CITY           SKY/WX    TMP DP  RH WIND       PRES   REMARKS
ALGONA *       CLOUDY     5   5 100 W13       29.96R WCI -12          
CLARION *      PTCLDY     3   1  92 SW12      30.00R FOG     WCI -13  
ESTHERVILLE    CLOUDY     8   4  83 W13       29.95R WCI  -8          
FORT DODGE *   PTCLDY     4   1  88 SW8       30.01R WCI  -9          
MASON CITY     CLOUDY     8   5  87 W13       29.97R WCI  -8          
FOREST CITY *  FAIR       9   5  85 SW7       29.97R WCI  -3          
IOWA FALLS *   FAIR       9   6  89 SW9       30.02R WCI  -5          
$$

IAZ007>011-017>019-026>030-037>042-050>054-066-211100-
   NORTHEAST IOWA
  
CITY           SKY/WX    TMP DP  RH WIND       PRES   REMARKS
CEDAR RAPIDS   FAIR      13  11  92 W9        30.01R WCI   1          
CHARLES CITY * FAIR       9   5  85 SW13      29.98R WCI  -7          
CLINTON *      FAIR      16  13  88 W9        30.03R WCI   4          
DECORAH *      FAIR      12  12 100 VRB7      29.94R WCI   2          
DUBUQUE        FAIR      15  11  83 W10       29.98R WCI   2          
OELWEIN *      FAIR      10   9  92 W14       29.99R WCI  -5          
WATERLOO       FAIR      14   9  80 W12       30.01R WCI   0          
$$
 
IAZ064-065-067-068-078-211100-
   EAST CENTRAL IOWA
  
CITY           SKY/WX    TMP DP  RH WIND       PRES   REMARKS
DAVENPORT      FAIR      22  15  75 W10       30.05R WCI  11          
IOWA CITY      FAIR      16  12  84 SW3       30.06R                  
MT. PLEASANT * PTCLDY    23  21  93 W8        30.07R WCI  14          
MUSCATINE *    FAIR      23  18  80 SW7       30.07R WCI  15          
QUAD CITIES    FAIR      23  17  78 W8        30.04R WCI  14          
$$
 
IAZ062-063-075>077-085>089-095>099-211100-
   SOUTHEAST IOWA
  
CITY           SKY/WX    TMP DP  RH WIND       PRES   REMARKS
BURLINGTON     CLEAR     25  19  78 W7        30.06R WCI  17          
FAIRFIELD *    CLOUDY    19  14  79 SW8       30.06R WCI   9          
FORT MADISON * CLEAR     27  21  80 W5        30.08R WCI  21          
KEOKUK *       CLEAR     27  25  93 SW10      30.08R WCI  17          
OSKALOOSA *    FAIR      12  10  90 SW10      30.07R WCI  -2          
OTTUMWA        CLOUDY    18  14  84 W9        30.07R WCI   7          
WASHINGTON *   CLOUDY    19  18  93 W9        30.07R WCI   9          
$$

ABBREVIATIONS USED IN REMARKS
   TC - TEMPERATURES IN CELSIUS
  WCI - WIND CHILL INDEX
   HX - HEAT INDEX
  VSB - VISIBILITY  
$$